This is the latest recevied weather packets stored in our database for station/object NN5DX-13. If no packets are shown the sender has not sent any weather packets the latest 10 day(s).
| Time | Temp. | Humidity | Pressure | Rain* | Wind** | Luminosity | Snow |
|---|---|---|---|---|---|---|---|
| 1778185216 | 20° C | 52% | 1016.7 hPa | 0 mm | - | - | - |
| 1778184916 | 20° C | 54% | 1016.8 hPa | 0 mm | - | - | - |
| 1778184616 | 20° C | 54% | 1016.8 hPa | 0 mm | - | - | - |
| 1778184316 | 19.44° C | 56% | 1017 hPa | 0 mm | - | - | - |
| 1778184017 | 18.89° C | 56% | 1017.1 hPa | 0 mm | - | - | - |
| 1778183716 | 19.44° C | 57% | 1017.1 hPa | 0 mm | - | - | - |
| 1778183417 | 18.89° C | 57% | 1017.2 hPa | 0 mm | - | - | - |
| 1778183116 | 18.89° C | 58% | 1017.2 hPa | 0 mm | - | - | - |
| 1778182820 | 18.89° C | 60% | 1017.2 hPa | 0 mm | - | - | - |
| 1778182516 | 18.89° C | 58% | 1017.3 hPa | 0 mm | - | - | - |
| 1778182216 | 18.89° C | 59% | 1017.4 hPa | 0 mm | - | - | - |
| 1778181916 | 18.89° C | 59% | 1017.4 hPa | 0 mm | - | - | - |
| 1778181616 | 18.89° C | 58% | 1017.5 hPa | 0 mm | - | - | - |
| 1778181316 | 18.33° C | 60% | 1017.3 hPa | 0 mm | - | - | - |
| 1778181021 | 18.33° C | 60% | 1017.3 hPa | 0 mm | - | - | - |
| 1778180716 | 18.33° C | 59% | 1017.4 hPa | 0 mm | - | - | - |
| 1778180416 | 18.33° C | 59% | 1017.3 hPa | 0 mm | - | - | - |
| 1778180116 | 18.89° C | 60% | 1017.7 hPa | 0 mm | - | - | - |
| 1778179816 | 18.33° C | 61% | 1017.6 hPa | 0 mm | - | - | - |
| 1778179517 | 17.78° C | 62% | 1017.8 hPa | 0 mm | - | - | - |
| 1778179216 | 17.78° C | 63% | 1017.9 hPa | 0 mm | - | - | - |
| 1778178916 | 17.78° C | 62% | 1018.1 hPa | 0 mm | - | - | - |
| 1778178616 | 17.78° C | 63% | 1018 hPa | 0 mm | - | - | - |
| 1778178316 | 17.78° C | 63% | 1018.1 hPa | 0 mm | - | - | - |
| 1778178016 | 17.78° C | 62% | 1018.1 hPa | 0 mm | - | - | - |
* Rain latest hour (hover to see other rain measurements)
** Current wind speed in m/s (hover to see current wind gust speed)